Temperature
33 33 32 33 34 33 33 33 33 33 34 34 33 32 31 31 30 30 29 28 27 26 25 24 24 23 22 21 20 20 20 20 20 20 20 19 19 19 19 19 19 19 18 18
32 32 34 34 34 34 34 33 33 34 35 34 33 31 31 31 31 30 30 29 28 27 26 25 24 23 22 21 21 20 20 20 20 20 20 20 19 19 19 19 19 19 19 19
32 33 35 34 34 34 34 34 33 34 34 34 33 31 31 31 31 31 30 29 28 27 26 25 24 23 22 21 21 21 20 20 20 20 20 20 20 19 19 19 19 19 19 19
33 34 35 34 34 34 33 35 35 34 33 32 32 30 30 30 30 31 31 30 29 28 27 25 24 23 23 22 21 21 20 20 20 20 20 20 20 19 19 19 19 19 19 18
33 34 34 34 34 35 34 35 35 34 33 32 33 31 30 31 30 31 31 31 30 29 27 26 25 24 23 22 22 21 21 20 20 20 20 20 20 19 19 19 19 19 19 18
34 35 35 35 35 35 35 35 34 34 33 31 32 32 30 30 31 31 31 31 30 29 28 27 25 24 24 23 22 21 21 20 20 20 20 20 20 19 19 19 19 19 19 18
32 34 35 35 34 35 34 32 31 30 30 30 32 32 31 31 32 32 31 31 30 30 28 27 26 24 24 23 22 22 21 20 20 20 20 20 20 19 19 19 19 19 19 18
31 32 34 35 34 34 33 33 30 29 30 31 32 31 32 33 33 32 32 31 30 30 29 28 26 25 24 23 23 22 21 21 20 20 20 20 20 19 19 19 19 19 19 19
32 32 35 35 35 34 33 33 33 32 31 30 31 31 32 33 33 33 32 31 31 30 29 28 27 25 24 24 23 22 21 21 20 20 20 20 20 20 19 19 19 19 19 19
33 32 33 34 34 34 34 34 33 32 30 30 30 30 30 31 32 33 32 31 30 30 29 28 27 26 25 24 23 22 21 21 20 20 20 20 20 19 19 19 19 19 19 19
33 32 32 33 32 33 33 33 32 32 32 31 29 29 31 31 32 32 32 31 30 30 29 28 27 26 25 24 23 22 21 21 20 20 20 20 20 19 19 19 19 19 19 18
32 32 31 32 34 34 34 33 33 31 31 31 31 30 32 32 32 31 31 30 30 29 29 28 27 26 25 24 23 22 21 21 20 20 20 19 19 19 19 19 19 19 18 18
31 30 29 31 32 33 33 33 33 33 32 31 30 30 32 32 31 31 30 29 28 28 28 27 26 26 25 24 23 22 21 21 20 20 19 19 19 19 18 18 18 18 18 18
31 30 29 29 31 32 32 32 33 33 32 31 30 30 30 31 30 30 29 29 28 27 27 26 26 25 24 24 23 22 21 21 20 20 19 19 19 19 18 18 18 18 18 18
31 30 30 31 31 32 32 32 32 32 32 31 31 31 30 30 30 30 29 28 27 26 26 25 25 24 24 23 22 22 21 21 20 20 19 19 18 18 18 18 18 18 17 17
30 29 29 29 31 31 31 32 32 32 32 31 31 30 31 30 30 29 28 27 27 26 25 25 24 23 23 22 22 21 21 21 20 20 19 19 18 18 18 18 17 17 17 17
29 28 28 28 30 30 30 31 31 31 32 31 30 29 29 29 29 28 28 27 26 25 25 24 23 23 22 22 21 21 20 20 20 19 19 18 18 18 18 17 17 17 17 17
28 27 27 28 28 27 30 32 32 31 31 31 30 30 29 28 27 27 26 26 25 24 24 23 23 22 22 21 21 20 20 19 19 19 18 18 18 18 17 17 17 17 17 17
29 27 27 27 27 28 30 30 31 30 30 30 30 29 28 27 27 26 25 24 24 23 23 23 22 22 21 21 20 20 19 19 19 18 18 18 17 17 17 17 17 17 17 17
29 28 27 27 26 26 28 30 30 30 28 29 28 28 27 27 26 25 24 23 23 22 22 22 22 21 21 20 20 19 19 19 18 18 18 18 17 17 17 17 17 17 17 17
27 27 26 26 26 26 28 29 29 27 26 27 27 27 26 26 25 24 23 22 22 22 21 22 21 21 20 20 19 19 19 18 18 18 17 17 17 17 17 17 17 17 16 16
26 26 26 26 25 25 27 27 26 25 26 26 26 25 25 24 23 22 22 21 21 21 21 21 20 20 19 19 19 19 18 18 18 17 17 17 17 17 17 17 16 16 16 16
25 25 25 25 25 24 24 25 24 25 24 25 24 24 23 23 22 21 21 20 20 20 20 20 20 19 19 18 18 18 18 18 17 17 17 17 17 17 17 16 16 16 16 16
25 25 25 24 24 24 24 24 24 23 23 23 23 23 22 22 21 20 20 19 19 19 19 19 19 18 18 18 18 18 17 17 17 17 17 17 17 17 16 16 16 16 16 16
23 24 23 23 23 23 22 22 22 22 22 22 22 22 21 21 20 19 19 19 18 18 18 18 18 18 17 17 17 17 17 17 17 17 16 16 16 16 16 16 16 16 16 16
23 23 22 22 22 22 22 22 21 21 21 21 21 21 20 20 19 19 18 18 18 18 18 17 17 17 17 17 17 16 16 16 16 16 16 16 16 16 16 16 16 16 16 16
Wind_Speed
14 13 12 11 10 11 8 7 3 5 8 7 7 11 13 13 13 13 13 13 13 13 13 13 11 12 12 10 8 6 6 4 3 2 2 2 2 1 2 3 4 3 2 2
14 16 15 12 12 13 10 7 6 6 5 5 4 7 10 12 13 14 14 14 14 15 14 14 13 12 12 10 9 8 7 6 4 3 2 2 2 2 3 3 3 3 3 2
18 14 13 13 13 12 10 9 7 6 5 5 5 6 9 11 11 13 14 14 15 16 16 15 13 12 12 11 10 8 7 6 4 4 3 2 2 1 3 3 3 2 3 2
17 15 14 14 14 12 11 10 8 8 8 6 7 5 7 10 11 12 13 14 15 15 16 15 14 13 13 12 11 8 8 6 5 4 3 3 3 2 3 2 3 3 3 3
15 16 16 15 14 13 12 11 10 10 10 9 9 6 6 10 12 13 12 13 15 16 17 17 16 14 13 13 12 10 8 7 5 4 3 2 2 2 2 3 4 3 3 3
16 15 15 14 13 13 12 11 11 10 10 10 11 9 5 8 10 11 12 12 14 16 16 16 16 14 12 12 12 11 10 8 7 6 5 4 3 2 3 3 4 3 3 3
16 17 16 14 14 13 12 10 8 9 9 10 10 8 5 8 8 10 11 11 12 15 15 16 16 16 13 12 12 12 11 9 8 7 5 4 3 3 3 3 3 3 3 3
15 15 16 14 14 12 13 13 11 10 9 8 7 5 3 4 7 10 12 13 12 13 14 16 17 16 14 13 12 12 12 10 9 7 6 5 4 3 3 2 2 3 2 2
12 13 12 12 12 13 14 14 15 12 12 9 5 4 4 5 5 8 10 11 13 12 13 14 16 16 15 13 12 12 12 10 9 8 7 5 5 3 2 2 3 2 2 2
14 11 11 11 10 14 15 14 10 10 11 10 6 5 5 7 7 8 9 11 10 12 13 13 14 15 15 13 11 11 11 10 8 8 7 7 5 4 3 2 2 1 1 1
16 14 12 12 13 14 14 14 11 10 11 10 7 3 4 7 7 6 7 9 10 11 12 12 12 12 12 13 13 12 11 10 8 7 6 5 5 4 4 2 2 2 2 2
13 11 12 13 13 13 15 15 14 10 9 10 9 4 4 6 6 6 6 8 7 7 10 10 11 11 11 12 12 11 11 10 9 7 6 5 5 4 4 3 2 2 2 2
7 8 10 12 12 13 13 14 15 14 11 10 10 5 3 5 6 6 6 7 7 6 7 9 9 8 8 9 10 11 10 10 10 8 8 6 5 5 4 3 3 3 3 3
6 10 13 14 11 9 13 15 15 14 11 10 10 8 5 5 5 6 8 7 7 5 7 7 8 7 6 7 8 9 9 9 9 9 8 7 5 5 4 4 4 3 3 3
9 12 15 16 16 14 14 15 15 14 12 11 9 7 6 5 5 5 6 7 8 7 5 6 7 7 7 7 7 7 7 7 7 8 8 7 6 5 4 4 4 3 3 3
10 11 13 15 17 17 16 15 15 14 13 12 10 7 4 4 4 5 6 7 7 6 4 5 7 7 7 7 7 7 7 7 6 7 7 6 6 6 5 4 4 4 3 2
10 10 13 14 15 16 17 13 11 11 9 9 9 5 3 4 5 5 5 6 5 6 5 5 6 6 6 6 6 6 6 6 6 6 6 6 6 6 5 5 4 4 4 4
10 9 9 13 13 17 10 8 8 8 7 5 4 5 4 4 5 5 5 5 5 5 5 4 6 6 6 6 6 6 7 6 6 6 6 6 5 5 5 4 4 4 3 3
12 9 10 12 13 14 9 6 6 7 6 3 2 3 4 5 5 6 5 4 4 4 4 4 5 7 6 6 5 6 7 7 6 6 5 5 5 4 4 4 4 3 3 3
13 9 11 11 12 11 7 5 4 5 6 0 2 2 3 5 3 3 4 4 4 4 3 4 5 6 6 5 5 5 6 6 6 5 5 4 4 4 4 4 3 3 3 3
13 12 14 13 12 8 6 4 4 6 1 3 1 1 1 3 3 4 5 4 3 4 4 4 5 5 6 5 5 4 5 5 5 5 4 4 4 3 3 3 3 3 3 4
9 10 11 11 12 7 5 2 3 3 4 3 3 3 4 6 6 6 5 4 4 3 3 4 5 5 5 5 4 4 4 4 4 5 5 4 4 4 3 3 3 3 4 5
7 5 5 5 3 3 5 5 4 4 4 4 3 4 5 6 5 5 5 4 3 2 2 3 4 4 4 4 4 4 3 3 4 4 4 4 3 3 3 4 4 4 5 5
5 4 4 3 1 2 4 5 5 4 4 4 3 3 4 4 5 5 5 4 2 2 2 3 4 4 3 3 4 4 4 3 4 4 3 3 3 4 4 4 5 5 4 4
6 5 3 3 2 0 3 4 4 4 3 3 3 2 3 4 4 4 4 3 2 1 2 2 3 3 4 3 3 3 3 3 3 3 3 4 4 4 3 4 4 4 3 4
7 5 4 4 2 1 1 2 3 3 3 2 1 2 3 3 4 4 4 3 2 2 3 3 3 3 3 3 4 3 3 3 3 3 3 4 4 3 4 4 3 3 4 5
Wind_Direction
223 230 235 234 228 237 239 248 230 209 217 220 182 159 168 174 179 177 175 170 172 170 164 161 161 153 150 149 152 150 147 143 149 144 147 139 146 144 110 114 117 130 123 114
226 229 233 235 241 245 239 242 241 224 208 233 194 166 175 181 190 185 179 176 176 170 164 164 166 162 160 157 158 157 156 159 169 152 159 160 154 152 115 97 109 114 103 111
229 230 232 234 237 247 248 249 245 246 243 245 243 209 180 191 200 188 182 180 179 175 168 168 170 167 164 164 167 168 163 161 174 166 173 151 127 125 109 117 131 123 124 117
235 236 236 236 239 245 251 253 251 248 248 242 233 231 192 190 198 192 188 184 181 176 171 170 171 170 170 171 169 160 158 162 168 170 183 172 163 159 147 145 141 152 148 138
235 236 238 239 242 243 251 259 265 262 260 260 247 244 190 190 201 192 190 190 183 177 175 173 173 172 175 174 170 165 158 162 168 177 180 185 169 167 153 150 145 161 156 148
247 241 241 242 246 250 254 260 267 268 262 256 256 255 199 194 207 189 187 190 182 176 175 172 170 167 173 174 169 165 160 165 170 177 177 181 191 179 157 155 158 173 164 160
239 241 238 236 240 239 242 245 249 249 246 249 247 243 198 180 189 180 178 183 182 172 172 170 168 168 172 172 171 164 160 168 175 180 176 178 193 198 178 186 181 183 168 165
232 233 230 226 232 240 235 238 242 250 252 252 246 244 179 161 168 167 166 173 180 172 173 171 170 169 172 175 172 165 162 170 178 180 177 178 187 201 192 204 203 184 182 164
244 238 228 227 229 238 239 238 245 256 267 267 241 218 198 166 170 161 155 158 166 169 167 168 168 169 173 175 172 167 162 171 180 180 174 178 176 194 199 193 206 196 171 169
254 253 233 227 231 233 245 248 248 252 259 264 253 242 220 180 173 159 151 151 161 163 165 165 167 169 170 171 166 162 160 167 173 174 180 178 175 182 175 184 192 160 140 132
246 254 244 221 224 231 232 242 247 255 263 266 255 242 209 194 170 154 144 146 155 160 162 163 164 163 164 167 166 166 162 165 172 173 174 169 170 181 173 182 187 148 143 149
238 251 256 239 224 234 238 239 241 246 257 271 273 259 163 184 147 141 136 127 126 144 152 154 155 156 162 164 164 162 164 169 169 167 166 167 169 167 171 176 173 152 158 162
241 250 254 244 225 219 234 239 244 246 248 254 260 253 191 142 126 132 133 126 124 138 143 144 146 149 152 155 156 158 166 169 168 165 167 170 171 165 164 162 153 149 153 158
242 245 252 254 253 231 234 240 241 246 248 251 244 227 214 166 152 147 129 128 135 132 136 139 136 135 138 138 140 150 160 161 162 163 166 167 170 169 162 152 151 161 169 174
238 241 250 260 266 262 244 242 241 240 248 259 260 241 196 171 165 149 138 137 134 130 135 136 135 132 135 135 139 146 151 153 159 160 163 164 169 163 159 160 162 167 178 183
228 250 256 259 262 261 255 246 247 244 240 240 243 257 199 155 140 138 140 136 131 136 146 143 137 139 141 140 145 149 154 153 155 160 162 161 166 164 165 169 166 165 170 175
237 244 254 255 257 265 254 247 241 247 247 240 243 232 186 163 146 146 146 139 138 143 144 141 142 144 143 146 143 149 151 152 153 159 160 160 165 166 169 179 171 179 181 186
237 245 250 254 255 252 256 263 250 246 259 248 215 171 161 141 117 110 111 118 121 124 128 138 147 144 146 148 150 149 155 152 157 163 165 163 168 171 171 177 180 189 192 193
230 232 242 249 249 252 253 262 271 256 247 243 200 160 119 115 111 108 101 99 99 103 110 125 136 144 139 142 143 149 152 151 160 162 162 163 166 168 170 175 186 192 197 200
228 223 234 244 251 253 258 273 284 274 251 99 119 144 159 147 173 149 104 87 88 92 102 114 119 125 127 130 139 145 153 154 159 157 154 154 158 168 178 181 186 195 200 212
218 219 229 242 251 257 298 321 295 248 267 35 114 124 86 97 68 105 102 82 79 87 99 105 115 122 123 126 136 143 148 153 148 145 144 149 150 167 182 171 174 193 212 221
239 229 229 240 247 247 341 320 314 15 53 50 57 63 78 88 99 109 107 101 97 92 100 117 109 112 118 126 136 140 144 140 139 145 150 159 167 190 185 174 195 207 216 222
242 252 248 251 239 50 28 37 37 41 52 56 75 75 99 109 112 112 114 109 100 102 113 120 117 115 121 131 140 144 144 147 151 154 162 173 182 195 188 198 213 222 222 227
253 283 262 270 156 68 39 32 35 42 48 46 69 88 109 113 117 119 114 109 106 100 128 135 131 131 133 141 146 143 144 150 156 162 174 185 195 207 202 214 223 224 228 232
274 269 260 259 251 47 42 25 24 24 30 44 44 75 106 115 124 131 125 122 120 109 109 124 133 137 143 142 139 144 143 146 160 173 183 203 217 212 211 224 233 237 234 232
264 262 253 251 244 234 61 25 41 32 17 7 50 85 98 115 115 117 111 111 121 131 122 123 126 132 136 143 142 140 151 165 180 198 207 221 227 212 215 224 227 228 229 222
Height
1470 1471 1471 1466 1463 1464 1466 1470 1473 1470 1462 1463 1468 1474 1477 1480 1484 1488 1492 1496 1500 1504 1508 1512 1515 1517 1520 1522 1524 1525 1527 1528 1529 1530 1531 1531 1532 1532 1533 1533 1533 1534 1535 1536
1468 1469 1462 1458 1458 1458 1462 1468 1469 1463 1457 1460 1466 1472 1473 1476 1479 1483 1487 1492 1496 1501 1506 1510 1513 1516 1518 1520 1522 1524 1526 1527 1528 1529 1531 1532 1532 1533 1533 1533 1534 1534 1535 1536
1466 1460 1455 1456 1457 1459 1460 1463 1465 1464 1460 1460 1467 1475 1474 1473 1476 1479 1483 1488 1492 1497 1502 1506 1510 1513 1516 1519 1520 1523 1524 1526 1527 1529 1530 1532 1532 1533 1534 1534 1534 1534 1535 1536
1458 1453 1453 1455 1457 1457 1463 1454 1455 1459 1466 1471 1469 1488 1477 1472 1475 1476 1479 1484 1488 1493 1498 1503 1507 1511 1514 1516 1519 1521 1523 1524 1526 1528 1529 1530 1531 1532 1533 1533 1534 1534 1535 1535
1456 1452 1452 1456 1453 1451 1454 1449 1452 1456 1462 1469 1467 1478 1479 1469 1473 1471 1474 1478 1483 1489 1494 1499 1504 1508 1512 1515 1517 1519 1521 1523 1525 1526 1528 1529 1531 1532 1533 1533 1534 1534 1535 1535
1450 1446 1446 1448 1447 1447 1448 1452 1455 1457 1463 1483 1471 1476 1482 1470 1466 1466 1469 1474 1479 1485 1490 1495 1500 1505 1509 1513 1515 1517 1519 1521 1523 1525 1526 1528 1530 1531 1532 1533 1533 1533 1534 1534
1455 1447 1443 1444 1449 1448 1451 1465 1483 1490 1488 1484 1464 1469 1472 1459 1457 1461 1465 1471 1476 1481 1486 1492 1497 1501 1506 1510 1513 1515 1516 1519 1521 1523 1525 1526 1528 1530 1531 1532 1532 1533 1533 1534
1461 1458 1442 1440 1446 1452 1453 1461 1484 1497 1493 1481 1466 1471 1462 1452 1453 1458 1462 1468 1473 1478 1482 1487 1493 1498 1503 1507 1510 1513 1514 1517 1519 1521 1523 1525 1527 1528 1529 1530 1531 1532 1532 1533
1454 1453 1437 1437 1439 1445 1453 1457 1452 1466 1472 1481 1475 1465 1458 1450 1453 1456 1460 1464 1469 1474 1479 1485 1490 1495 1500 1504 1507 1510 1512 1515 1517 1520 1521 1523 1525 1526 1528 1529 1530 1531 1532 1532
1445 1453 1441 1437 1440 1441 1444 1447 1454 1466 1483 1488 1481 1476 1470 1459 1457 1455 1458 1463 1468 1472 1478 1483 1488 1493 1497 1501 1505 1508 1510 1513 1515 1518 1520 1521 1523 1524 1526 1527 1528 1529 1530 1530
1441 1451 1446 1441 1446 1448 1448 1451 1453 1457 1460 1478 1490 1483 1456 1454 1453 1455 1458 1462 1466 1471 1476 1481 1485 1490 1495 1499 1502 1505 1508 1511 1513 1516 1517 1519 1521 1522 1524 1525 1526 1527 1527 1528
1440 1445 1451 1442 1434 1435 1440 1445 1450 1465 1468 1463 1471 1474 1448 1449 1451 1455 1459 1463 1467 1471 1475 1479 1484 1488 1493 1496 1500 1503 1505 1508 1511 1513 1515 1517 1518 1520 1521 1522 1523 1524 1525 1526
1441 1449 1463 1457 1448 1440 1441 1441 1442 1446 1455 1464 1473 1472 1446 1447 1452 1457 1461 1465 1469 1473 1475 1479 1483 1487 1491 1494 1498 1501 1503 1506 1509 1511 1513 1515 1516 1518 1519 1520 1521 1522 1523 1524
1443 1449 1458 1465 1453 1443 1446 1442 1440 1445 1456 1461 1462 1463 1453 1450 1453 1457 1461 1466 1470 1474 1475 1479 1482 1486 1490 1493 1496 1499 1502 1504 1507 1509 1511 1513 1514 1516 1517 1518 1519 1520 1521 1522
1441 1450 1449 1445 1440 1438 1441 1442 1440 1444 1447 1456 1455 1454 1452 1450 1454 1457 1462 1466 1470 1473 1477 1479 1482 1486 1489 1492 1494 1497 1500 1502 1505 1506 1508 1510 1512 1514 1515 1516 1516 1518 1519 1520
1441 1448 1449 1450 1441 1438 1439 1436 1436 1438 1441 1445 1449 1453 1446 1450 1455 1458 1463 1466 1470 1472 1475 1479 1482 1485 1488 1490 1493 1495 1498 1500 1502 1504 1506 1508 1510 1511 1512 1513 1514 1515 1516 1518
1443 1449 1455 1455 1445 1442 1447 1437 1437 1438 1438 1443 1451 1451 1449 1452 1456 1459 1462 1466 1470 1473 1476 1478 1481 1484 1486 1489 1491 1493 1496 1498 1500 1502 1504 1506 1507 1509 1510 1512 1512 1513 1514 1515
1445 1450 1453 1455 1455 1467 1444 1429 1430 1436 1438 1438 1441 1446 1449 1453 1458 1461 1464 1466 1470 1473 1475 1478 1480 1483 1485 1487 1490 1492 1494 1496 1498 1500 1502 1504 1505 1506 1508 1509 1510 1511 1512 1513
1439 1447 1453 1455 1459 1453 1440 1433 1434 1439 1442 1440 1443 1447 1451 1455 1459 1463 1465 1468 1471 1473 1475 1477 1479 1481 1484 1486 1488 1490 1492 1494 1495 1497 1499 1501 1503 1504 1506 1507 1508 1509 1510 1510
1437 1441 1451 1454 1463 1464 1448 1435 1435 1438 1449 1443 1445 1449 1452 1455 1460 1463 1466 1469 1471 1471 1474 1477 1479 1481 1482 1484 1486 1488 1490 1491 1493 1495 1497 1499 1501 1502 1504 1504 1505 1507 1508 1508
1443 1445 1450 1454 1458 1454 1441 1438 1438 1454 1456 1449 1449 1451 1453 1456 1461 1464 1466 1469 1471 1471 1474 1477 1478 1480 1482 1483 1485 1487 1489 1490 1492 1493 1495 1497 1498 1500 1501 1502 1503 1504 1505 1506
1445 1447 1449 1452 1459 1461 1445 1443 1448 1453 1450 1451 1452 1454 1456 1459 1462 1465 1467 1469 1471 1472 1475 1477 1479 1480 1481 1483 1485 1486 1487 1489 1491 1492 1494 1496 1497 1499 1500 1500 1501 1502 1502 1503
1442 1444 1445 1449 1454 1451 1450 1450 1452 1453 1453 1454 1454 1457 1459 1461 1463 1465 1468 1469 1472 1474 1475 1477 1478 1480 1481 1483 1484 1485 1486 1488 1489 1491 1492 1494 1495 1496 1497 1498 1498 1499 1500 1500
1443 1442 1445 1449 1450 1451 1453 1454 1454 1455 1456 1456 1457 1458 1460 1461 1463 1465 1468 1470 1472 1474 1475 1476 1478 1479 1480 1482 1483 1484 1485 1487 1488 1489 1490 1492 1493 1494 1495 1495 1496 1497 1497 1497
1446 1446 1448 1451 1452 1452 1455 1456 1456 1457 1457 1457 1458 1459 1460 1461 1463 1465 1467 1470 1471 1473 1474 1476 1477 1478 1480 1481 1482 1483 1484 1485 1486 1487 1488 1489 1491 1491 1492 1492 1493 1493 1494 1494
1446 1447 1451 1453 1453 1455 1457 1457 1458 1459 1458 1459 1460 1460 1461 1462 1463 1465 1467 1469 1470 1472 1473 1475 1476 1477 1479 1480 1481 1482 1483 1484 1485 1486 1486 1488 1488 1489 1489 1489 1490 1490 1491 1491